Location: Chervonnoye
(48.6000°N, 34.4000°E)
Time: 02:11:56
(UTC+00:00)

NOAA 15 - Pass Details

Date: 02 December 2021
Orbit: 797 x 812 km, 98.7° (Epoch: 17 January)

Event Time Altitude Azimuth Distance (km) Brightness Sun altitude
Rises 14:58:30 0° 120° (ESE) 3,322 7.4 -11.1°
Reaches altitude 10° 15:01:21 10° 105° (ESE) 2,393 6.6 -11.5°
Maximum altitude 15:05:13 21° 58° (ENE) 1,746 5.8 -12.1°
Drops below altitude 10° 15:09:04 10° 11° (N) 2,396 6.8 -12.7°
Sets 15:11:55 0° 356° (N) 3,329 7.7 -13.2°
